TimeEDT,TemperatureF,Dew PointF,Humidity,Sea Level PressureIn,VisibilityMPH,Wind Direction,Wind SpeedMPH,Gust SpeedMPH,PrecipitationIn,Events,Conditions,WindDirDegrees,DateUTC
12:54 AM,7.0,1.9,80,30.22,10.0,Calm,Calm,-,N/A,,Clear,0,2014-03-18 04:54:00
1:54 AM,6.1,1.0,80,30.24,10.0,Calm,Calm,-,N/A,,Clear,0,2014-03-18 05:54:00
2:54 AM,3.0,-0.9,84,30.25,10.0,Calm,Calm,-,N/A,,Clear,0,2014-03-18 06:54:00
3:54 AM,1.9,-2.0,83,30.25,10.0,Calm,Calm,-,N/A,,Clear,0,2014-03-18 07:54:00
4:54 AM,1.9,-2.0,83,30.27,10.0,Calm,Calm,-,N/A,,Clear,0,2014-03-18 08:54:00
5:54 AM,1.9,-2.0,83,30.30,10.0,Calm,Calm,-,N/A,,Clear,0,2014-03-18 09:54:00
6:54 AM,1.0,-2.9,83,30.31,10.0,Calm,Calm,-,N/A,,Clear,0,2014-03-18 10:54:00
7:54 AM,1.9,-0.9,88,30.34,10.0,Calm,Calm,-,N/A,,Clear,0,2014-03-18 11:54:00
8:54 AM,7.0,-0.0,73,30.35,10.0,Calm,Calm,-,N/A,,Clear,0,2014-03-18 12:54:00
9:54 AM,12.9,-0.9,54,30.37,10.0,Calm,Calm,-,N/A,,Clear,0,2014-03-18 13:54:00
11:54 AM,23.0,-2.0,34,30.35,10.0,Calm,Calm,-,N/A,,Partly Cloudy,0,2014-03-18 15:54:00
12:54 PM,26.1,-2.9,28,30.34,10.0,Calm,Calm,-,N/A,,Overcast,0,2014-03-18 16:54:00
1:54 PM,28.9,-5.1,23,30.33,10.0,Calm,Calm,-,N/A,,Overcast,0,2014-03-18 17:54:00
2:54 PM,33.1,-8.0,17,30.32,10.0,Calm,Calm,-,N/A,,Partly Cloudy,0,2014-03-18 18:54:00
3:54 PM,36.0,-9.0,14,30.30,10.0,Calm,Calm,-,N/A,,Clear,0,2014-03-18 19:54:00
4:54 PM,37.0,-8.0,14,30.30,10.0,Calm,Calm,-,N/A,,Clear,0,2014-03-18 20:54:00
5:54 PM,37.0,-8.0,14,30.30,10.0,Calm,Calm,-,N/A,,Clear,0,2014-03-18 21:54:00
6:54 PM,32.0,-0.0,26,30.31,10.0,NNW,3.5,-,N/A,,Clear,340,2014-03-18 22:54:00
7:54 PM,28.0,10.0,47,30.33,9.0,Calm,Calm,-,N/A,,Clear,0,2014-03-18 23:54:00
8:54 PM,24.1,10.9,57,30.34,10.0,Calm,Calm,-,N/A,,Clear,0,2014-03-19 00:54:00
9:54 PM,23.0,12.0,63,30.34,10.0,Calm,Calm,-,N/A,,Clear,0,2014-03-19 01:54:00
10:54 PM,21.0,10.9,65,30.34,10.0,Calm,Calm,-,N/A,,Clear,0,2014-03-19 02:54:00
11:54 PM,19.0,10.0,68,30.34,10.0,Calm,Calm,-,N/A,,Clear,0,2014-03-19 03:54:00